This is the latest recevied weather packets stored in our database for station/object OK5TVR-5. If no packets are shown the sender has not sent any weather packets the latest 10 day(s).
| Time | Temp. | Humidity | Pressure | Rain* | Wind** | Luminosity | Snow |
|---|---|---|---|---|---|---|---|
| 1788643297 | 12.22° C | 69% | 1018.1 hPa | 0 mm | - | 0 W/m² | - |
| 1788642397 | 12.78° C | 67% | 1018 hPa | 0 mm | - | 0 W/m² | - |
| 1788641497 | 12.78° C | 67% | 1018 hPa | 0 mm | - | 0 W/m² | - |
| 1788640597 | 12.78° C | 68% | 1017.8 hPa | 0 mm | - | 0 W/m² | - |
| 1788639697 | 13.33° C | 67% | 1017.7 hPa | 0 mm | - | 0 W/m² | - |
| 1788638797 | 14.44° C | 61% | 1017.3 hPa | 0 mm | - | 0 W/m² | - |
| 1788633899 | 17.78° C | 47% | 1015.9 hPa | 0 mm | - | 0 W/m² | - |
| 1788628702 | 20° C | 45% | 1014.4 hPa | 0 mm | - | 7 W/m² | - |
| 1788627804 | 21.11° C | 43% | 1014 hPa | 0 mm | - | 15 W/m² | - |
| 1788626901 | 21.11° C | 42% | 1013.5 hPa | 0 mm | - | 25 W/m² | - |
| 1788626002 | 21.67° C | 39% | 1013.2 hPa | 0 mm | - | 34 W/m² | - |
| 1788625102 | 22.22° C | 37% | 1012.7 hPa | 0 mm | - | 48 W/m² | - |
| 1788616349 | 22.22° C | 44% | 1011.9 hPa | 0 mm | - | 133 W/m² | - |
| 1788615441 | 22.78° C | 42% | 1011.9 hPa | 0 mm | - | 146 W/m² | - |
| 1788614541 | 22.78° C | 42% | 1012 hPa | 0 mm | - | 151 W/m² | - |
| 1788613641 | 22.78° C | 44% | 1012.2 hPa | 0 mm | - | 159 W/m² | - |
| 1788612741 | 22.78° C | 43% | 1012.1 hPa | 0 mm | - | 197 W/m² | - |
| 1788611841 | 22.78° C | 47% | 1012.2 hPa | 0 mm | - | 206 W/m² | - |
| 1788610941 | 22.22° C | 47% | 1012 hPa | 0 mm | - | 212 W/m² | - |
| 1788610041 | 22.22° C | 48% | 1012.4 hPa | 0 mm | - | 230 W/m² | - |
| 1788609141 | 22.22° C | 50% | 1012.5 hPa | 0 mm | - | 208 W/m² | - |
| 1788608241 | 20° C | 52% | 1012.9 hPa | 0 mm | - | 218 W/m² | - |
| 1788607341 | 20.56° C | 57% | 1013.1 hPa | 0 mm | - | 66 W/m² | - |
| 1788606441 | 20° C | 55% | 1013 hPa | 0 mm | - | 131 W/m² | - |
| 1788605541 | 20° C | 58% | 1013.1 hPa | 0 mm | - | 89 W/m² | - |
* Rain latest hour (hover to see other rain measurements)
** Current wind speed in m/s (hover to see current wind gust speed)